period_start,C,m1,H,J0,J1,J2,J3,J4,J5,JA,JB,JC,JD,JJ,JK,JN,#
2015-12-20 00:00:08,0.06,0.31,0.00,13.15,17.42,21.31,15.28,48.91,1023.71,2072.60,3521.03,3178.37,3548.03,599.77,620.64,7.18,0000 0000 0000 0000 000000
2015-12-20 00:05:09,0.04,0.31,0.00,13.19,17.43,21.35,15.27,48.74,1023.51,2072.37,3520.03,3177.63,3547.00,600.11,620.70,7.23,0000 0000 0000 0000 000000
2015-12-20 00:10:10,0.02,0.31,0.00,13.20,17.44,21.39,15.08,48.62,1023.58,2072.18,3519.07,3176.86,3546.06,599.90,620.55,7.28,0000 0000 0000 0000 000000
2015-12-20 00:15:11,0.04,0.32,0.00,13.20,17.45,21.35,15.13,48.84,1023.67,2072.05,3517.96,3176.00,3545.15,599.91,620.63,7.33,0000 0000 0000 0000 000000
2015-12-20 00:20:13,0.05,0.32,0.00,13.21,17.47,21.36,15.16,48.90,1023.53,2072.03,3516.81,3175.14,3544.30,600.00,620.67,7.38,0000 0000 0000 0000 000000
2015-12-20 00:25:14,0.05,0.32,0.00,13.22,17.48,21.43,15.21,48.95,1023.47,2072.03,3515.78,3174.33,3543.28,600.02,620.65,7.43,0000 0000 0000 0000 000000
2015-12-20 00:30:15,0.05,0.32,0.00,13.26,17.49,21.40,15.18,48.91,1023.47,2072.01,3514.48,3173.43,3542.34,599.92,620.48,7.48,0000 0000 0000 0000 000000
2015-12-20 00:35:16,0.05,0.33,0.00,13.28,17.51,21.45,15.22,48.92,1023.46,2072.00,3513.26,3172.57,3541.43,600.21,620.64,7.53,0000 0000 0000 0000 000000
2015-12-20 00:40:17,0.05,0.33,0.00,13.27,17.52,21.46,15.20,48.86,1023.45,2072.00,3512.03,3171.69,3540.44,600.12,620.49,7.58,0000 0000 0000 0000 000000
2015-12-20 00:45:19,0.05,0.33,0.00,13.29,17.54,21.42,15.27,49.02,1023.45,2072.00,3510.82,3170.76,3539.32,600.42,620.85,7.63,0000 0000 0000 0000 000000
2015-12-20 00:50:20,0.05,0.33,0.00,13.33,17.56,21.42,15.15,48.97,1023.45,2072.00,3509.62,3169.92,3538.31,599.80,620.17,7.68,0000 0000 0000 0000 000000
2015-12-20 00:55:21,0.05,0.34,0.00,13.31,17.57,21.46,15.21,49.08,1023.45,2072.00,3508.40,3168.95,3537.41,600.04,620.39,7.73,0000 0000 0000 0000 000000
2015-12-20 01:00:23,0.05,0.34,0.00,13.35,17.59,21.45,15.22,49.10,1023.44,2071.98,3506.94,3168.01,3536.36,600.13,620.32,7.78,0000 0000 0000 0000 000000
2015-12-20 01:05:24,0.06,0.34,0.00,13.36,17.60,21.49,15.22,48.99,1023.45,2071.97,3505.67,3167.03,3535.29,600.07,620.31,7.83,0000 0000 0000 0000 000000
2015-12-20 01:10:25,0.05,0.35,0.00,13.36,17.62,21.60,15.22,49.02,1023.45,2071.97,3504.58,3166.08,3534.12,599.90,620.09,7.88,0000 0000 0000 0000 000000
2015-12-20 01:15:27,0.05,0.35,0.00,13.39,17.63,21.53,15.30,49.13,1023.45,2071.95,3503.41,3165.23,3533.16,600.44,620.58,7.93,0000 0000 0000 0000 000000
2015-12-20 01:20:28,0.05,0.35,0.00,13.39,17.64,21.53,15.20,49.02,1023.37,2071.88,3501.96,3164.25,3532.20,599.97,620.06,7.98,0000 0000 0000 0000 000000
2015-12-20 01:25:29,0.04,0.35,0.00,13.42,17.67,21.49,15.18,48.92,1023.15,2071.77,3500.64,3163.32,3531.20,600.00,619.95,8.03,0000 0000 0000 0000 000000
2015-12-20 01:30:31,0.05,0.36,0.00,13.42,17.67,21.61,15.26,49.06,1022.99,2071.64,3499.53,3162.41,3530.12,600.19,620.04,8.08,0000 0000 0000 0000 000000
2015-12-20 01:35:32,0.03,0.36,0.00,13.43,17.69,21.60,15.18,49.02,1023.03,2071.50,3498.29,3161.56,3529.15,599.81,619.72,8.13,0000 0000 0000 0000 000000
2015-12-20 01:40:34,0.03,0.36,0.00,13.46,17.71,21.63,15.17,48.89,1023.14,2071.46,3497.17,3160.70,3528.23,600.22,619.99,8.18,0000 0000 0000 0000 000000
2015-12-20 01:45:35,0.03,0.36,0.00,13.49,17.72,21.62,15.18,48.91,1023.14,2071.09,3495.90,3159.83,3527.13,599.97,619.71,8.23,0000 0000 0000 0000 000000
2015-12-20 01:50:36,0.05,0.37,0.00,13.50,17.74,21.62,15.13,48.98,1023.05,2071.03,3494.66,3158.92,3526.09,600.18,619.90,8.28,0000 0000 0000 0000 000000
2015-12-20 01:55:37,0.05,0.37,0.00,13.50,17.74,21.61,15.17,49.02,1022.99,2071.03,3493.64,3158.04,3525.07,600.12,619.73,8.33,0000 0000 0000 0000 000000
2015-12-20 02:00:38,0.05,0.37,0.00,13.50,17.77,21.69,15.14,48.99,1022.98,2071.02,3492.45,3157.19,3524.15,600.02,619.52,8.38,0000 0000 0000 0000 000000
2015-12-20 02:05:40,0.05,0.37,0.00,13.51,17.78,21.66,15.22,48.98,1022.97,2071.00,3491.37,3156.30,3523.22,600.05,619.67,8.44,0000 0000 0000 0000 000000
2015-12-20 02:10:41,0.05,0.38,0.00,13.54,17.79,21.69,15.16,48.83,1022.96,2071.00,3490.14,3155.53,3522.30,599.92,619.53,8.49,0000 0000 0000 0000 000000
2015-12-20 02:15:43,0.05,0.38,0.00,13.56,17.81,21.68,15.17,48.94,1022.96,2071.00,3489.03,3154.69,3521.37,600.17,619.67,8.54,0000 0000 0000 0000 000000
2015-12-20 02:20:44,0.05,0.38,0.00,13.54,17.82,21.75,15.20,48.97,1022.95,2071.00,3487.85,3153.85,3520.44,600.04,619.57,8.59,0000 0000 0000 0000 000000
2015-12-20 02:25:45,0.05,0.38,0.00,13.58,17.84,21.71,15.13,48.82,1022.95,2071.00,3486.65,3152.97,3519.57,599.61,619.04,8.64,0000 0000 0000 0000 000000
2015-12-20 02:30:46,0.04,0.39,0.00,13.58,17.86,21.72,15.18,48.67,1022.94,2070.98,3485.66,3152.10,3518.58,599.90,619.34,8.69,0000 0000 0000 0000 000000
2015-12-20 02:35:48,0.05,0.39,0.00,13.62,17.87,21.72,15.19,48.83,1022.95,2070.98,3484.32,3151.22,3517.75,600.11,619.56,8.74,0000 0000 0000 0000 000000
2015-12-20 02:40:49,0.05,0.39,0.00,13.66,17.89,21.77,15.12,48.87,1022.88,2070.97,3483.07,3150.36,3516.76,599.85,619.08,8.79,0000 0000 0000 0000 000000
2015-12-20 02:45:50,0.05,0.39,0.00,13.64,17.90,21.69,15.19,48.78,1022.84,2070.94,3481.94,3149.51,3515.84,600.09,619.34,8.84,0000 0000 0000 0000 000000
2015-12-20 02:50:51,0.04,0.40,0.00,13.62,17.92,21.80,15.06,48.83,1022.78,2070.93,3480.87,3148.80,3514.88,599.71,618.92,8.89,0000 0000 0000 0000 000000
2015-12-20 02:55:53,0.04,0.40,0.00,13.65,17.93,21.79,15.20,48.84,1022.69,2070.81,3479.84,3148.01,3514.00,600.14,619.31,8.94,0000 0000 0000 0000 000000
2015-12-20 03:00:54,0.03,0.40,0.00,13.64,17.94,21.81,15.08,48.81,1022.87,2070.67,3478.72,3147.15,3513.06,599.89,619.15,8.99,0000 0000 0000 0000 000000
2015-12-20 03:05:55,0.03,0.40,0.00,13.67,17.97,21.83,15.05,48.77,1022.88,2070.20,3477.60,3146.30,3512.11,599.48,618.73,9.04,0000 0000 0000 0000 000000
2015-12-20 03:10:56,0.04,0.40,0.00,13.68,17.98,21.82,15.24,48.82,1022.72,2070.10,3476.50,3145.53,3511.18,600.19,619.20,9.09,0000 0000 0000 0000 000000
2015-12-20 03:15:58,0.05,0.41,0.00,13.68,17.99,21.85,15.23,48.92,1022.72,2070.06,3475.39,3144.70,3510.36,599.98,618.89,9.14,0000 0000 0000 0000 000000
2015-12-20 03:20:59,0.03,0.41,0.00,13.72,18.00,21.89,15.17,48.70,1022.92,2070.03,3474.40,3143.98,3509.44,599.96,619.10,9.19,0000 0000 0000 0000 000000
2015-12-20 03:26:00,0.05,0.41,0.00,13.73,18.02,21.93,15.19,48.80,1022.96,2070.02,3473.36,3143.16,3508.49,600.29,619.33,9.24,0000 0000 0000 0000 000000
2015-12-20 03:31:02,0.05,0.41,0.00,13.75,18.03,21.89,15.10,48.79,1022.95,2070.00,3472.12,3142.29,3507.58,599.87,618.97,9.29,0000 0000 0000 0000 000000
2015-12-20 03:36:03,0.06,0.42,0.00,13.76,18.04,21.93,15.11,48.75,1022.95,2070.00,3470.88,3141.35,3506.66,600.05,619.09,9.34,0000 0000 0000 0000 000000
2015-12-20 03:41:04,0.05,0.42,0.00,13.76,18.06,21.91,15.14,48.87,1022.95,2070.00,3469.75,3140.61,3505.72,599.84,618.87,9.39,0000 0000 0000 0000 000000
2015-12-20 03:46:05,0.05,0.42,0.00,13.76,18.07,21.95,15.10,48.69,1022.95,2070.00,3468.64,3139.74,3504.66,600.01,619.07,9.44,0000 0000 0000 0000 000000
2015-12-20 03:51:06,0.04,0.42,0.00,13.77,18.08,21.94,15.14,48.81,1022.96,2069.99,3467.50,3138.89,3503.75,599.92,619.02,9.49,0000 0000 0000 0000 000000
2015-12-20 03:56:07,0.04,0.43,0.00,13.78,18.09,21.97,15.11,48.83,1022.95,2069.99,3466.49,3138.05,3502.90,600.21,619.26,9.54,0000 0000 0000 0000 000000
2015-12-20 04:01:08,0.05,0.43,0.00,13.79,18.11,21.95,15.13,48.96,1022.96,2069.98,3465.35,3137.21,3501.94,600.21,619.22,9.59,0000 0000 0000 0000 000000
2015-12-20 04:06:10,0.05,0.43,0.00,13.78,18.12,21.93,15.16,48.95,1022.94,2069.98,3464.19,3136.41,3501.00,599.96,618.90,9.64,0000 0000 0000 0000 000000
2015-12-20 04:11:11,0.05,0.43,0.00,13.75,18.12,21.99,15.20,48.78,1022.83,2069.98,3463.00,3135.55,3500.07,600.32,619.33,9.69,0000 0000 0000 0000 000000
2015-12-20 04:16:12,0.04,0.44,0.00,13.78,18.14,22.00,15.14,48.88,1022.58,2069.98,3461.77,3134.88,3499.05,599.99,618.65,9.74,0000 0000 0000 0000 000000
2015-12-20 04:21:14,0.05,0.44,0.00,13.83,18.14,21.99,15.20,48.87,1022.50,2069.94,3460.50,3133.97,3497.99,600.05,618.69,9.79,0000 0000 0000 0000 000000
2015-12-20 04:26:15,0.05,0.44,0.00,13.83,18.16,22.03,15.14,48.83,1022.49,2069.91,3459.26,3133.07,3497.00,600.14,618.77,9.84,0000 0000 0000 0000 000000
2015-12-20 04:31:16,0.05,0.45,0.00,13.83,18.17,22.02,15.22,49.22,1022.48,2069.84,3457.94,3132.15,3496.02,600.14,618.71,9.89,0000 0000 0000 0000 000000
2015-12-20 04:36:17,0.05,0.45,0.00,13.84,18.17,22.06,15.13,49.05,1022.48,2069.73,3456.83,3131.20,3494.98,599.90,618.45,9.94,0000 0000 0000 0000 000000
2015-12-20 04:41:18,0.02,0.45,0.00,13.84,18.19,22.04,15.15,48.77,1022.48,2069.40,3455.66,3130.29,3493.93,599.89,618.51,9.99,0000 0000 0000 0000 000000
2015-12-20 04:46:19,0.06,0.45,0.00,13.81,18.19,22.01,15.12,48.89,1022.48,2069.49,3454.61,3129.59,3492.95,599.92,618.60,10.04,0000 0000 0000 0000 000000
2015-12-20 04:51:21,0.03,0.45,0.00,13.85,18.22,22.08,15.19,48.83,1022.48,2069.16,3453.42,3128.67,3491.93,600.02,618.67,10.09,0000 0000 0000 0000 000000
2015-12-20 04:56:22,0.03,0.46,0.00,13.86,18.23,22.15,15.16,48.72,1022.48,2069.07,3452.25,3127.87,3490.99,599.90,618.40,10.14,0000 0000 0000 0000 000000
2015-12-20 05:01:23,0.05,0.46,0.00,13.88,18.24,22.12,15.06,48.71,1022.48,2069.05,3451.00,3126.98,3490.06,600.06,618.56,10.19,0000 0000 0000 0000 000000
2015-12-20 05:06:24,0.05,0.46,0.00,13.87,18.25,22.10,15.15,48.77,1022.48,2069.03,3449.90,3126.09,3489.14,600.04,618.57,10.24,0000 0000 0000 0000 000000
2015-12-20 05:11:25,0.05,0.46,0.00,13.89,18.27,22.11,15.24,48.91,1022.48,2069.01,3448.89,3125.31,3488.19,600.45,618.93,10.29,0000 0000 0000 0000 000000
2015-12-20 05:16:26,0.05,0.47,0.00,13.92,18.28,22.14,15.22,48.87,1022.48,2069.02,3447.85,3124.58,3487.45,599.98,618.38,10.34,0000 0000 0000 0000 000000
2015-12-20 05:21:28,0.04,0.47,0.00,13.92,18.29,22.19,15.16,48.76,1022.48,2069.00,3446.79,3123.84,3486.40,599.85,618.31,10.39,0000 0000 0000 0000 000000
2015-12-20 05:26:29,0.04,0.47,0.00,13.91,18.30,22.18,15.07,48.82,1022.48,2069.00,3445.72,3123.03,3485.51,599.68,618.13,10.44,0000 0000 0000 0000 000000
2015-12-20 05:31:30,0.04,0.47,0.00,13.93,18.32,22.21,15.16,48.96,1022.45,2069.00,3444.73,3122.19,3484.84,599.89,618.20,10.49,0000 0000 0000 0000 000000
2015-12-20 05:36:32,0.05,0.48,0.00,13.94,18.32,22.23,15.23,49.03,1022.22,2069.00,3443.68,3121.53,3483.99,600.08,618.38,10.54,0000 0000 0000 0000 000000
2015-12-20 05:41:33,0.03,0.48,0.00,13.94,18.32,22.19,15.12,49.16,1022.36,2069.00,3442.74,3120.96,3483.16,599.91,618.23,10.59,0000 0000 0000 0000 000000
2015-12-20 05:46:35,0.05,0.48,0.00,13.95,18.34,22.14,15.15,49.02,1022.44,2069.00,3441.78,3120.13,3482.43,600.25,618.59,10.64,0000 0000 0000 0000 000000
2015-12-20 05:51:36,0.04,0.48,0.00,13.92,18.34,22.20,15.23,49.16,1022.48,2069.00,3440.87,3119.50,3481.71,600.08,618.51,10.70,0000 0000 0000 0000 000000
2015-12-20 05:56:37,0.02,0.49,0.00,13.93,18.34,22.24,15.22,49.15,1022.28,2068.99,3440.00,3118.94,3480.93,600.24,618.58,10.75,0000 0000 0000 0000 000000
2015-12-20 06:01:38,0.05,0.49,0.00,13.93,18.36,22.25,15.15,49.13,1022.47,2068.99,3439.09,3118.11,3480.09,600.28,618.70,10.80,0000 0000 0000 0000 000000
2015-12-20 06:06:40,0.04,0.49,0.00,13.94,18.37,22.21,15.15,49.02,1022.47,2068.99,3438.18,3117.57,3479.39,599.85,618.22,10.85,0000 0000 0000 0000 000000
2015-12-20 06:11:41,0.03,0.49,0.00,13.94,18.37,22.25,15.16,48.91,1022.47,2068.98,3437.24,3116.98,3478.67,599.96,618.39,10.90,0000 0000 0000 0000 000000
2015-12-20 06:16:42,0.04,0.49,0.00,13.97,18.38,22.28,15.09,48.84,1022.48,2068.98,3436.47,3116.17,3477.84,599.76,618.11,10.95,0000 0000 0000 0000 000000
2015-12-20 06:21:44,0.04,0.50,0.00,13.97,18.39,22.28,15.15,48.84,1022.48,2068.96,3435.51,3115.57,3477.05,600.00,618.35,11.00,0000 0000 0000 0000 000000
2015-12-20 06:26:45,0.04,0.50,0.00,13.96,18.39,22.19,15.17,48.81,1022.48,2068.96,3434.58,3114.97,3476.31,599.98,618.32,11.05,0000 0000 0000 0000 000000
2015-12-20 06:31:46,0.04,0.50,0.00,13.98,18.40,22.23,15.20,48.90,1022.48,2068.96,3433.87,3114.23,3475.65,600.11,618.27,11.10,0000 0000 0000 0000 000000
2015-12-20 06:36:47,0.02,0.50,0.00,14.02,18.42,22.28,15.09,48.87,1022.48,2068.92,3433.00,3113.83,3474.98,600.02,618.25,11.15,0000 0000 0000 0000 000000
2015-12-20 06:41:48,0.04,0.50,0.00,14.02,18.42,22.30,15.12,48.95,1022.48,2068.89,3432.10,3113.05,3474.17,599.90,618.12,11.20,0000 0000 0000 0000 000000
2015-12-20 06:46:50,0.02,0.51,0.00,14.01,18.42,22.25,15.16,48.95,1022.48,2068.81,3431.31,3112.61,3473.70,600.12,618.36,11.25,0000 0000 0000 0000 000000
2015-12-20 06:51:51,0.03,0.51,0.00,14.02,18.43,22.32,15.17,49.03,1022.49,2068.69,3430.49,3112.00,3473.01,599.87,618.13,11.30,0000 0000 0000 0000 000000
2015-12-20 06:56:53,0.03,0.51,0.00,14.03,18.44,22.30,15.16,49.02,1022.48,2068.61,3429.65,3111.31,3472.25,600.05,618.19,11.35,0000 0000 0000 0000 000000
2015-12-20 07:01:54,0.02,0.51,0.00,14.02,18.45,22.32,15.17,48.99,1022.48,2068.52,3428.83,3110.82,3471.60,599.92,618.22,11.40,0000 0000 0000 0000 000000
2015-12-20 07:06:56,0.01,0.51,0.00,14.04,18.47,22.33,15.11,48.79,1022.48,2068.17,3427.97,3110.04,3470.87,599.78,617.91,11.45,0000 0000 0000 0000 000000
2015-12-20 07:11:57,0.05,0.51,0.00,14.07,18.47,22.30,15.15,48.73,1022.48,2068.10,3427.10,3109.39,3470.04,600.09,618.15,11.50,0000 0000 0000 0000 000000
2015-12-20 07:16:59,0.03,0.51,0.00,14.09,18.49,22.32,15.15,48.86,1022.48,2068.03,3426.28,3108.92,3469.27,599.82,617.87,11.55,0000 0000 0000 0000 000000
2015-12-20 07:22:00,0.04,0.52,0.00,14.09,18.49,22.33,15.13,48.76,1022.48,2068.06,3425.42,3108.11,3468.78,600.04,618.12,11.60,0000 0000 0000 0000 000000
2015-12-20 07:27:01,0.04,0.52,0.00,14.10,18.51,22.36,15.12,48.76,1022.47,2068.03,3424.57,3107.55,3467.98,600.04,617.99,11.65,0000 0000 0000 0000 000000
2015-12-20 07:32:03,0.03,0.52,0.00,14.11,18.52,22.39,15.16,48.94,1022.38,2068.01,3423.77,3107.00,3467.12,600.25,618.20,11.70,0000 0000 0000 0000 000000
2015-12-20 07:37:04,0.05,0.52,0.00,14.14,18.53,22.35,15.13,48.93,1022.16,2068.01,3422.78,3106.22,3466.37,600.08,617.86,11.75,0000 0000 0000 0000 000000
2015-12-20 07:42:06,0.03,0.52,0.00,14.17,18.54,22.38,15.08,48.76,1022.06,2068.00,3421.92,3105.74,3465.78,599.96,617.55,11.80,0000 0000 0000 0000 000000
2015-12-20 07:47:07,0.04,0.53,0.00,14.19,18.55,22.44,15.09,48.76,1022.00,2068.00,3421.04,3105.02,3464.99,599.77,617.49,11.85,0000 0000 0000 0000 000000
2015-12-20 07:52:08,0.05,0.53,0.00,14.19,18.57,22.40,15.07,48.74,1022.01,2068.00,3420.13,3104.32,3464.18,599.85,617.45,11.90,0000 0000 0000 0000 000000
2015-12-20 07:57:09,0.03,0.53,0.00,14.20,18.57,22.39,15.10,48.68,1022.23,2068.00,3419.27,3103.85,3463.70,600.05,617.71,11.95,0000 0000 0000 0000 000000
2015-12-20 08:02:11,0.04,0.53,0.00,14.21,18.57,22.44,15.09,48.76,1022.39,2067.99,3418.43,3103.06,3462.99,599.87,617.59,12.00,0000 0000 0000 0000 000000
2015-12-20 08:07:12,0.04,0.53,0.00,14.21,18.59,22.41,15.13,48.81,1022.32,2067.99,3417.58,3102.54,3462.20,599.87,617.72,12.05,0000 0000 0000 0000 000000
2015-12-20 08:12:13,0.03,0.54,0.00,14.24,18.59,22.40,15.13,48.80,1022.06,2067.99,3416.73,3101.88,3461.49,599.99,617.42,12.10,0000 0000 0000 0000 000000
2015-12-20 08:17:15,0.04,0.54,0.00,14.27,18.60,22.45,15.09,48.75,1022.01,2067.98,3415.79,3101.05,3460.69,600.07,617.47,12.15,0000 0000 0000 0000 000000
2015-12-20 08:22:16,0.05,0.54,0.00,14.26,18.62,22.47,15.06,48.78,1022.03,2067.95,3414.66,3100.31,3459.84,599.87,617.35,12.20,0000 0000 0000 0000 000000
2015-12-20 08:27:17,0.03,0.54,0.00,14.28,18.62,22.41,15.09,48.83,1022.02,2067.96,3413.83,3099.79,3459.02,599.78,617.26,12.25,0000 0000 0000 0000 000000
2015-12-20 08:32:19,0.03,0.55,0.00,14.27,18.62,22.47,15.11,48.96,1022.02,2067.87,3412.88,3099.03,3458.16,599.93,617.34,12.30,0000 0000 0000 0000 000000
2015-12-20 08:37:20,0.05,0.55,0.00,14.29,18.63,22.50,15.15,48.88,1022.00,2067.90,3411.93,3098.36,3457.57,600.13,617.53,12.35,0000 0000 0000 0000 000000
2015-12-20 08:42:21,0.02,0.55,0.00,14.28,18.64,22.48,15.11,48.91,1022.00,2067.74,3410.96,3097.75,3456.82,599.78,617.25,12.40,0000 0000 0000 0000 000000
2015-12-20 08:47:22,0.05,0.55,0.00,14.27,18.64,22.48,15.14,48.75,1022.16,2067.84,3410.08,3097.03,3456.05,600.09,617.66,12.45,0000 0000 0000 0000 000000
2015-12-20 08:52:24,0.04,0.55,0.00,14.25,18.65,22.50,15.13,48.78,1022.45,2067.86,3409.21,3096.46,3455.35,599.80,617.43,12.50,0000 0000 0000 0000 000000
2015-12-20 08:57:25,0.01,0.55,0.00,14.26,18.66,22.51,15.09,48.85,1022.24,2067.61,3408.16,3095.79,3454.60,599.72,617.24,12.55,0000 0000 0000 0000 000000
2015-12-20 09:02:26,0.04,0.56,0.00,14.28,18.67,22.52,15.13,48.70,1022.24,2067.63,3407.26,3095.03,3453.79,599.89,617.42,12.60,0000 0000 0000 0000 000000
2015-12-20 09:07:27,0.03,0.56,0.00,14.29,18.67,22.49,15.10,48.75,1022.07,2067.48,3406.26,3094.29,3453.00,599.95,617.31,12.65,0000 0000 0000 0000 000000
2015-12-20 09:12:29,0.04,0.56,0.00,14.31,18.69,22.54,15.05,48.64,1022.00,2067.35,3405.33,3093.69,3452.16,599.62,616.91,12.70,0000 0000 0000 0000 000000
2015-12-20 09:17:30,0.03,0.56,0.00,14.32,18.69,22.50,15.09,48.68,1022.00,2067.31,3404.37,3093.01,3451.44,600.03,617.32,12.75,0000 0000 0000 0000 000000
2015-12-20 09:22:31,0.04,0.56,0.00,14.33,18.70,22.52,15.06,48.81,1021.99,2067.29,3403.47,3092.31,3450.65,599.82,617.12,12.80,0000 0000 0000 0000 000000
2015-12-20 09:27:32,0.03,0.57,0.00,14.33,18.72,22.57,15.06,48.76,1022.00,2067.05,3402.47,3091.57,3449.85,599.89,617.18,12.86,0000 0000 0000 0000 000000
2015-12-20 09:32:34,0.04,0.57,0.00,14.31,18.72,22.55,15.11,48.83,1022.00,2067.03,3401.49,3090.88,3448.97,599.67,617.09,12.91,0000 0000 0000 0000 000000
2015-12-20 09:37:35,0.04,0.57,0.00,14.32,18.74,22.57,15.15,48.81,1021.99,2067.03,3400.59,3090.08,3448.12,600.48,617.81,12.96,0000 0000 0000 0000 000000
2015-12-20 09:42:36,0.04,0.57,0.00,14.35,18.74,22.58,15.16,48.72,1021.99,2067.02,3399.75,3089.47,3447.45,600.07,617.32,13.01,0000 0000 0000 0000 000000
2015-12-20 09:47:37,0.03,0.57,0.00,14.38,18.77,22.59,15.15,48.85,1021.98,2067.03,3398.83,3088.92,3446.78,599.90,616.88,13.06,0000 0000 0000 0000 000000
2015-12-20 09:52:38,0.04,0.58,0.00,14.39,18.77,22.57,15.15,48.86,1021.99,2067.02,3397.91,3088.08,3445.91,599.80,616.87,13.11,0000 0000 0000 0000 000000
2015-12-20 09:57:39,0.05,0.58,0.00,14.40,18.79,22.59,15.10,48.73,1021.99,2067.01,3396.92,3087.43,3445.05,599.97,617.01,13.16,0000 0000 0000 0000 000000
2015-12-20 10:02:41,0.04,0.58,0.00,14.41,18.79,22.64,15.14,48.83,1021.99,2067.00,3395.87,3086.74,3444.27,600.16,617.14,13.21,0000 0000 0000 0000 000000
2015-12-20 10:07:42,0.03,0.58,0.00,14.42,18.80,22.62,15.07,48.88,1021.99,2066.99,3394.92,3086.01,3443.58,599.88,617.03,13.26,0000 0000 0000 0000 000000
2015-12-20 10:12:43,0.06,0.59,0.00,14.43,18.82,22.65,15.10,48.70,1021.99,2066.99,3393.58,3085.19,3442.48,599.91,616.96,13.31,0000 0000 0000 0000 000000
2015-12-20 10:17:44,0.05,0.59,0.00,14.42,18.82,22.67,15.16,48.77,1021.97,2066.99,3392.28,3084.18,3441.49,599.99,617.07,13.36,0000 0000 0000 0000 000000
2015-12-20 10:22:46,0.04,0.59,0.00,14.43,18.84,22.66,15.08,48.83,1021.99,2066.98,3391.30,3083.64,3440.75,599.86,616.87,13.41,0000 0000 0000 0000 000000
2015-12-20 10:27:47,0.03,0.59,0.00,14.43,18.84,22.71,15.10,48.87,1021.99,2066.98,3390.67,3082.95,3439.98,599.72,616.70,13.46,0000 0000 0000 0000 000000
2015-12-20 10:32:48,0.05,0.60,0.00,14.48,18.86,22.69,15.15,48.92,1021.99,2066.96,3389.49,3082.09,3439.13,600.04,616.86,13.51,0000 0000 0000 0000 000000
2015-12-20 10:37:50,0.04,0.60,0.00,14.45,18.87,22.71,15.06,48.83,1022.01,2066.96,3388.74,3081.55,3438.31,599.78,616.84,13.56,0000 0000 0000 0000 000000
2015-12-20 10:42:51,0.04,0.60,0.00,14.44,18.87,22.72,15.15,48.88,1022.01,2066.95,3387.60,3080.84,3437.49,600.21,617.27,13.61,0000 0000 0000 0000 000000
2015-12-20 10:47:52,0.04,0.60,0.00,14.46,18.89,22.74,15.15,48.94,1021.99,2066.94,3386.54,3080.03,3436.71,599.83,616.78,13.66,0000 0000 0000 0000 000000
2015-12-20 10:52:53,0.03,0.61,0.00,14.48,18.89,22.74,15.07,48.88,1021.99,2066.75,3385.59,3079.23,3435.90,600.16,617.04,13.71,0000 0000 0000 0000 000000
2015-12-20 10:57:55,0.03,0.61,0.00,14.52,18.91,22.72,15.15,48.86,1021.98,2066.53,3384.50,3078.58,3434.98,600.06,616.91,13.76,0000 0000 0000 0000 000000
2015-12-20 11:02:56,0.03,0.61,0.00,14.53,18.92,22.79,15.18,48.89,1021.88,2066.27,3383.07,3077.62,3433.98,600.12,616.64,13.81,0000 0000 0000 0000 000000
2015-12-20 11:07:57,0.05,0.61,0.00,14.54,18.92,22.79,15.13,48.88,1021.69,2066.15,3381.83,3076.78,3433.06,599.85,616.47,13.86,0000 0000 0000 0000 000000
2015-12-20 11:12:58,0.05,0.61,0.00,14.55,18.93,22.78,15.12,48.77,1021.56,2066.15,3380.69,3075.88,3432.13,599.66,616.26,13.91,0000 0000 0000 0000 000000
2015-12-20 11:17:59,0.05,0.62,0.00,14.55,18.94,22.74,15.10,48.92,1021.57,2066.11,3379.61,3075.01,3431.13,599.75,616.28,13.96,0000 0000 0000 0000 000000
2015-12-20 11:23:01,0.06,0.62,0.00,14.57,18.94,22.75,15.18,48.84,1021.52,2066.04,3378.16,3074.00,3429.94,600.28,616.76,14.01,0000 0000 0000 0000 000000
2015-12-20 11:28:02,0.07,0.62,0.00,14.57,18.95,22.82,15.13,48.93,1021.51,2066.02,3376.79,3072.95,3428.64,600.15,616.59,14.06,0000 0000 0000 0000 000000
2015-12-20 11:33:03,0.07,0.63,0.00,14.58,18.97,22.78,15.14,48.91,1021.50,2066.02,3375.31,3071.85,3427.44,600.42,616.89,14.11,0000 0000 0000 0000 000000
2015-12-20 11:38:04,0.06,0.63,0.00,14.58,18.97,22.77,14.97,48.87,1021.50,2066.00,3373.88,3070.89,3426.24,599.63,616.10,14.16,0000 0000 0000 0000 000000
2015-12-20 11:43:06,0.07,0.63,0.00,14.59,18.97,22.75,15.15,48.97,1021.47,2066.00,3372.53,3069.87,3424.96,600.12,616.61,14.21,0000 0000 0000 0000 000000
2015-12-20 11:48:07,0.06,0.64,0.00,14.59,18.98,22.79,15.08,48.76,1021.40,2066.00,3371.08,3068.84,3423.85,599.98,616.30,14.26,0000 0000 0000 0000 000000
2015-12-20 11:53:08,0.07,0.64,0.00,14.57,18.99,22.82,15.07,48.73,1021.30,2066.00,3369.55,3067.80,3422.74,599.82,616.17,14.31,0000 0000 0000 0000 000000
2015-12-20 11:58:09,0.07,0.64,0.00,14.57,18.99,22.84,15.09,48.80,1021.39,2066.00,3368.15,3066.75,3421.58,600.08,616.46,14.36,0000 0000 0000 0000 000000
2015-12-20 12:03:10,0.05,0.65,0.00,14.59,18.99,22.84,15.09,48.73,1021.43,2066.00,3366.99,3065.84,3420.26,600.21,616.63,14.41,0000 0000 0000 0000 000000
2015-12-20 12:08:12,0.07,0.65,0.00,14.62,19.02,22.79,15.08,48.80,1021.26,2066.00,3365.47,3064.82,3419.40,600.00,616.19,14.46,0000 0000 0000 0000 000000
2015-12-20 12:13:13,0.05,0.65,0.00,14.59,19.02,22.82,15.08,48.74,1021.12,2066.00,3364.16,3063.90,3418.36,600.05,616.12,14.51,0000 0000 0000 0000 000000
2015-12-20 12:18:14,0.06,0.66,0.00,14.59,19.02,22.88,15.15,48.71,1021.04,2066.00,3362.81,3062.92,3417.26,600.07,616.21,14.56,0000 0000 0000 0000 000000
2015-12-20 12:23:15,0.06,0.66,0.00,14.58,19.02,22.90,15.11,48.83,1021.01,2066.00,3361.59,3061.98,3416.24,600.14,616.27,14.61,0000 0000 0000 0000 000000
2015-12-20 12:28:16,0.06,0.66,0.00,14.60,19.02,22.86,15.09,48.66,1021.04,2066.00,3360.41,3061.05,3415.11,600.09,616.13,14.66,0000 0000 0000 0000 000000
2015-12-20 12:33:17,0.05,0.67,0.00,14.62,19.04,22.86,15.08,48.81,1021.05,2066.00,3359.29,3060.14,3414.05,599.68,615.72,14.71,0000 0000 0000 0000 000000
2015-12-20 12:38:19,0.07,0.67,0.00,14.60,19.04,22.88,15.04,48.77,1021.07,2065.99,3357.88,3059.19,3412.88,600.11,616.23,14.76,0000 0000 0000 0000 000000
2015-12-20 12:43:20,0.06,0.67,0.00,14.62,19.04,22.83,15.11,48.65,1021.06,2065.98,3356.62,3058.30,3411.93,600.14,616.23,14.81,0000 0000 0000 0000 000000
2015-12-20 12:48:21,0.06,0.67,0.00,14.64,19.04,22.87,15.11,48.78,1021.01,2065.98,3355.59,3057.42,3410.81,599.96,615.99,14.86,0000 0000 0000 0000 000000
2015-12-20 12:53:22,0.05,0.68,0.00,14.61,19.05,22.87,15.12,48.62,1021.01,2065.98,3354.21,3056.57,3409.81,600.00,616.11,14.91,0000 0000 0000 0000 000000